Location: Krasnoyarskiy Pitomnik
(51.1333°N, 71.6167°E)
Time: 09:42:06
(UTC+00:00)

SL-16 R/B - Pass Details

Date: 22 October 2021
Orbit: 842 x 846 km, 71.0° (Epoch: 07 December)

Event Time Altitude Azimuth Distance (km) Brightness Sun altitude
Rises 14:58:48 0° 229° (SW) 3,393 5.8 -27.5°
Reaches altitude 10° 15:01:20 10° 235° (SW) 2,462 5.0 -27.9°
Maximum altitude 15:06:46 47° 309° (NW) 1,116 3.1 -28.7°
Enters shadow 15:11:24 14° 19° (NNE) 2,181 4.3 -29.4°
